Skip Page Navigation
NASA JPL Caltech
NASA Logo - Jet Propulsion Laboratory + View the NASA Portal
+ Center for Near-Earth Object Studies
JPL Home Earth Solar System Stars & Galaxies Technology
JPL Solar System Dynamics
BODIES ORBITS EPHEMERIDES TOOLS PHYSICAL DATA DISCOVERY FAQ SITE MAP
IMPORTANT: The SSD Announcement email list is now available. Major changes are coming in the near future, including possible hostname and/or URL changes. To be notified of such changes, subscribe to this email list.

Please visit this page for more details.


JPL Small-Body Database Browser
Search: [ help ]  
1772 Gagarin (1968 CB)
Classification: Main-belt Asteroid          SPK-ID: 2001772
Ephemeris | Orbit Diagram | Orbital Elements | Mission Design | Physical Parameters | Discovery Circumstances ]

[ hide orbit diagram ]

For accurate long-term ephemerides, please instead use our Horizons system.This orbit viewer was implemented using two-body methods, and hence should not be used for determining accurate long-term trajectories (over several years or decades) or planetary encounter circumstances.


[ revert to old Java-based viewer ]

Orbital Elements at Epoch 2459000.5 (2020-May-31.0) TDB
Reference: JPL 28 (heliocentric ecliptic J2000)
 Element Value Uncertainty (1-sigma)   Units 
e .1044805782745843 7.8196e-08  
a 2.527370710695691 8.0857e-09 au
q 2.263309557327958 1.9848e-07 au
i 5.742075733906273 3.9931e-06 deg
node 88.17478276426223 3.8869e-05 deg
peri 93.47956357970169 4.7029e-05 deg
M 335.609068205252 2.9959e-05 deg
tp 2459099.932358349674
(2020-Sep-07.43235835)
0.0001222 TDB
period 1467.580218218251
4.02
7.0428e-06
1.928e-08
d
yr
n .2453017528657248 1.1772e-09 deg/d
Q 2.791431864063424 8.9305e-09 au
  Orbit Determination Parameters
   # obs. used (total)      3248  
   data-arc span      29247 days (80.07 yr)  
   first obs. used      1940-04-01  
   last obs. used      2020-04-28  
   planetary ephem.      DE431  
   SB-pert. ephem.      SB431-N16  
   condition code      0  
   norm. resid. RMS      .40912  
   source      ORB  
   producer      Otto Matic  
   solution date      2020-May-20 01:30:02  

Additional Information
 Earth MOID = 1.27464 au 
 Jupiter MOID = 2.18432 au 
 T_jup = 3.438 
[ show covariance matrix ]

Ephemeris | Orbit Diagram | Orbital Elements | Mission Design | Physical Parameters | Discovery Circumstances ]

Physical Parameter Table
Parameter Symbol Value Units Sigma Reference Notes
absolute magnitude H 12.6   n/a MPO416725  
diameter diameter 9.634 km 0.105 urn:nasa:pds:neowise_diameters_albedos::2.0[mainbelt] (http://adsabs.harvard.edu/abs/2011ApJ...741...68M)  
rotation period rot_per 10.96 h n/a LCDB (Rev. 2019-August); Warner et al., 2009 Result based on less than full coverage, so that the period may be wrong by 30 percent or so.
Published Reference List:
[Binzel, R.P. (1987) Icarus 72, 135-208.]
[Hanus, J.; Durech, J.; Broz, M.; Warner, B.D.; et al. (2011) Astron. Astrophys. 530, A134.]
[Waszczak, A.; Chang, C.-K.; Ofeck, E.O.; Laher, F.; et al. (2015) Astron. J. 150, A75.]
[Hanus, J.; Durech, J.; Oszkiewicz, D.A.; Behrend, R.; et al. (2016) Astron. Astrophys. 586, A108.]
geometric albedo albedo 0.138   0.009 urn:nasa:pds:neowise_diameters_albedos::2.0[mainbelt] (http://adsabs.harvard.edu/abs/2011ApJ...741...68M)  
B-V BV 0.920   0.030 EAR-A-5-DDR-UBV-MEAN-VALUES-V1.2 #obs=1; phase=3.90 deg.

1772 Gagarin (1968 CB)          Discovered 1968-Feb-06 by Chernykh, L. at Nauchnyj
Reference: DISCOVERY.DBLast Updated: 2003-08-29

Alternate Designations
 1968 CB = 1940 GA = 1942 VZ = 1948 ET = 1960 FH = 1969 OO 
Ephemeris | Orbit Diagram | Orbital Elements | Mission Design | Physical Parameters | Discovery Circumstances ]
ABOUT SSD CREDITS/AWARDS PRIVACY/COPYRIGHT GLOSSARY LINKS
FirstGov 2020-Jun-02 03:09 UT
(server date/time)  
NASA Home Page
Site Manager:   Ryan S. Park
Webmaster  Alan B. Chamberlin